CSUNSAT1

Last updated on May 6, 2019, 12:02 a.m. UTC

1 42715U 98067LW  19125.26904075  .15894941  12567-4  41505-3 0  9994
2 42715  51.6151 127.9321 0004619 278.8566  95.8002 16.45622418112486

Satellite is not in orbit.